Location: Blankensee
(53.5126°N, 14.3055°E)
Time: 18:32:57
(UTC+00:00)

Cosmos 2227 Rocket - Pass Details

Date: 08 August 2020
Orbit: 840 x 844 km, 71.0° (Epoch: 19 September)

Event Time Altitude Azimuth Distance (km) Brightness Sun altitude
Exits shadow 01:18:30 23° 211° (SSW) 1,727 3.2 -15.1°
Maximum altitude 01:22:10 90° 287° (WNW) 852 2.2 -14.8°
Drops below altitude 10° 01:27:53 10° 32° (NNE) 2,475 6.1 -14.3°
Sets 01:30:20 0° 33° (NNE) 3,413 7.4 -14.1°
